Location: Colle Pacifico
(43.5333°N, 13.3167°E)
Time: 13:43:53
(UTC+00:00)

USA 215 - Pass Details

Date: 07 June 2020
Orbit: 1098 x 1110 km, 123.0° (Epoch: 10 July)

Event Time Altitude Azimuth Distance (km) Brightness Sun altitude
Exits shadow 00:28:06 22° 154° (SSE) 2,209 4.5 -21.0°
Maximum altitude 00:32:26 58° 226° (SW) 1,270 3.3 -20.8°
Drops below altitude 10° 00:38:53 10° 305° (NW) 2,966 5.7 -20.3°
Sets 00:41:26 0° 309° (NW) 3,925 6.4 -20.1°
